Simultaneous Nadir Overpasses (SNOs) Predictions

Prediction of SNOs between GOES-16 and LANDSAT-8 Satellite Orbit:

Table of predicted SNOs for the next 14.0 days since TLE Epoch: 7/20/2024
Index Date Time (GOES-16) GOES-16 Lat,Lon LANDSAT-8 Lat,Lon Distance(km) Time Diff (sec)
1 07/21/2024 03:05:46 -0.00, -75.20 0.43, -73.23 224.84 80
2 07/21/2024 15:24:22 -0.00, -75.21 0.66, -78.39 360.95 80
3 07/23/2024 15:12:12 -0.01, -75.22 0.02, -75.43 23.66 80
4 07/25/2024 15:02:41 -0.02, -75.24 -0.58, -72.47 314.70 80
5 07/26/2024 03:21:26 0.02, -75.25 -0.48, -77.67 275.38 80
6 07/28/2024 03:11:55 0.02, -75.27 0.16, -74.71 64.12 80
7 07/30/2024 02:57:03 0.01, -75.30 0.77, -71.75 404.02 80
8 07/30/2024 15:18:18 -0.01, -75.31 0.35, -76.90 181.00 80
9 08/01/2024 15:08:46 0.01, -75.34 -0.29, -73.93 159.93 80
10 08/02/2024 03:30:10 -0.02, -75.35 -0.81, -79.12 429.08 80
